Time,TemperatureF,DewpointF,PressureIn,WindDirection,WindDirectionDegrees,WindSpeedMPH,WindSpeedGustMPH,Humidity,HourlyPrecipIn,Conditions,Clouds,dailyrainin,SolarRadiationWatts/m^2,SoftwareType,DateUTC
2013-08-01 00:02:00,64.0,33.0,-100.00,NW,325,19.0,19.0,31,-99.99,,,0.00,0.000000,,2013-08-01 07:02:00,
2013-08-01 00:12:00,64.0,33.0,-100.00,NW,325,19.0,19.0,31,-99.99,,,0.00,0.000000,,2013-08-01 07:12:00,
2013-08-01 00:22:00,64.0,33.0,-100.00,NW,325,19.0,19.0,31,-99.99,,,0.00,0.000000,,2013-08-01 07:22:00,
2013-08-01 00:55:00,64.0,31.0,-100.00,NNW,334,19.0,23.0,29,0.00,,,0.00,0.000000,,2013-08-01 07:55:00,
2013-08-01 01:03:00,64.0,31.0,-100.00,NNW,334,19.0,23.0,29,0.00,,,0.00,0.000000,,2013-08-01 08:03:00,
2013-08-01 01:14:00,64.0,31.0,-100.00,NNW,334,19.0,23.0,29,0.00,,,0.00,0.000000,,2013-08-01 08:14:00,
2013-08-01 01:22:00,64.0,31.0,-100.00,NNW,334,19.0,23.0,29,0.00,,,0.00,0.000000,,2013-08-01 08:22:00,
2013-08-01 02:05:00,63.0,27.0,-100.00,NNW,327,22.0,25.0,25,0.00,,,0.00,0.000000,,2013-08-01 09:05:00,
2013-08-01 03:05:00,61.0,27.0,-100.00,NNW,337,24.0,26.0,27,0.00,,,-99.99,0.000000,,2013-08-01 10:05:00,
2013-08-01 03:22:00,61.0,27.0,-100.00,NNW,337,24.0,26.0,27,0.00,,,-99.99,0.000000,,2013-08-01 10:22:00,
2013-08-01 04:06:00,61.0,31.0,-100.00,NNW,327,26.0,29.0,32,0.00,,,0.00,0.000000,,2013-08-01 11:06:00,
2013-08-01 04:14:00,61.0,31.0,-100.00,NNW,327,26.0,29.0,32,0.00,,,0.00,0.000000,,2013-08-01 11:14:00,
2013-08-01 04:25:00,61.0,31.0,-100.00,NNW,327,26.0,29.0,32,0.00,,,0.00,0.000000,,2013-08-01 11:25:00,
2013-08-01 05:06:00,59.0,33.0,-100.00,NW,323,26.0,31.0,37,0.00,,,0.00,0.000000,,2013-08-01 12:06:00,
2013-08-01 05:13:00,59.0,33.0,-100.00,NW,323,26.0,31.0,37,0.00,,,0.00,0.000000,,2013-08-01 12:13:00,
2013-08-01 05:24:00,59.0,33.0,-100.00,NW,323,26.0,31.0,37,0.00,,,0.00,0.000000,,2013-08-01 12:24:00,
2013-08-01 06:03:00,59.0,37.0,-100.00,NW,321,29.0,32.0,44,0.00,,,0.00,0.000000,,2013-08-01 13:03:00,
2013-08-01 06:24:00,59.0,37.0,-100.00,NW,321,29.0,32.0,44,0.00,,,0.00,0.000000,,2013-08-01 13:24:00,
2013-08-01 07:06:00,58.0,37.0,-100.00,NW,322,28.0,35.0,45,0.00,,,0.00,0.000000,,2013-08-01 14:06:00,
2013-08-01 08:07:00,57.0,35.0,-100.00,NW,320,26.0,35.0,43,0.00,,,0.00,11.000000,,2013-08-01 15:07:00,
2013-08-01 08:15:00,57.0,35.0,-100.00,NW,320,26.0,35.0,43,0.00,,,0.00,11.000000,,2013-08-01 15:15:00,
2013-08-01 08:23:00,57.0,35.0,-100.00,NW,320,26.0,35.0,43,0.00,,,0.00,11.000000,,2013-08-01 15:23:00,
2013-08-01 09:56:00,59.0,32.0,-100.00,NW,318,22.0,33.0,36,0.00,,,0.00,472.000000,,2013-08-01 16:56:00,
2013-08-01 10:07:00,59.0,32.0,-100.00,NW,318,22.0,33.0,36,0.00,,,0.00,472.000000,,2013-08-01 17:07:00,
2013-08-01 10:14:00,59.0,32.0,-100.00,NW,318,22.0,33.0,36,0.00,,,0.00,472.000000,,2013-08-01 17:14:00,
2013-08-01 10:24:00,59.0,32.0,-100.00,NW,318,22.0,33.0,36,0.00,,,0.00,472.000000,,2013-08-01 17:24:00,
2013-08-01 11:07:00,63.0,33.0,-100.00,NW,323,24.0,32.0,33,0.00,,,0.00,731.000000,,2013-08-01 18:07:00,
2013-08-01 11:16:00,63.0,33.0,-100.00,NW,323,24.0,32.0,33,0.00,,,0.00,731.000000,,2013-08-01 18:16:00,
2013-08-01 12:23:00,66.0,33.0,-100.00,NW,319,21.0,32.0,29,0.00,,,0.00,956.000000,,2013-08-01 19:23:00,
2013-08-01 13:05:00,69.0,31.0,-100.00,NW,307,21.0,31.0,24,0.00,,,0.00,1134.000000,,2013-08-01 20:05:00,
2013-08-01 13:14:00,69.0,31.0,-100.00,NW,307,21.0,31.0,24,0.00,,,0.00,1134.000000,,2013-08-01 20:14:00,
2013-08-01 13:22:00,69.0,31.0,-100.00,NW,307,21.0,31.0,24,0.00,,,0.00,1134.000000,,2013-08-01 20:22:00,
2013-08-01 14:03:00,71.0,29.0,-100.00,NW,307,12.0,37.0,21,0.00,,,0.00,1245.000000,,2013-08-01 21:03:00,
2013-08-01 14:22:00,71.0,29.0,-100.00,NW,307,12.0,37.0,21,0.00,,,0.00,1245.000000,,2013-08-01 21:22:00,
2013-08-01 14:53:00,77.0,27.0,-100.00,West,278,22.0,38.0,16,0.00,,,0.00,1284.000000,,2013-08-01 21:53:00,
2013-08-01 15:04:00,77.0,27.0,-100.00,West,278,22.0,38.0,16,0.00,,,0.00,1284.000000,,2013-08-01 22:04:00,
2013-08-01 15:13:00,77.0,27.0,-100.00,West,278,22.0,38.0,16,0.00,,,0.00,1284.000000,,2013-08-01 22:13:00,
2013-08-01 15:22:00,77.0,27.0,-100.00,West,278,22.0,38.0,16,0.00,,,0.00,1284.000000,,2013-08-01 22:22:00,
2013-08-01 16:05:00,76.0,18.0,-100.00,West,278,27.0,35.0,11,0.00,,,0.00,1254.000000,,2013-08-01 23:05:00,
2013-08-01 16:13:00,76.0,18.0,-100.00,West,278,27.0,35.0,11,0.00,,,0.00,1254.000000,,2013-08-01 23:13:00,
2013-08-01 16:23:00,76.0,18.0,-100.00,West,278,27.0,35.0,11,0.00,,,0.00,1254.000000,,2013-08-01 23:23:00,
2013-08-01 17:00:00,76.0,22.0,-100.00,West,277,25.0,41.0,13,0.00,,,0.00,1153.000000,,2013-08-02 00:00:00,
2013-08-01 17:14:00,76.0,22.0,-100.00,West,277,25.0,41.0,13,0.00,,,0.00,1153.000000,,2013-08-02 00:14:00,
2013-08-01 17:22:00,76.0,22.0,-100.00,West,277,25.0,41.0,13,0.00,,,0.00,1153.000000,,2013-08-02 00:22:00,
2013-08-01 17:59:00,75.0,26.0,-100.00,West,280,27.0,34.0,16,0.00,,,0.00,973.000000,,2013-08-02 00:59:00,
2013-08-01 18:13:00,75.0,26.0,-100.00,West,280,27.0,34.0,16,0.00,,,0.00,973.000000,,2013-08-02 01:13:00,
2013-08-01 18:59:00,73.0,31.0,-100.00,West,279,33.0,41.0,21,0.00,,,0.00,738.000000,,2013-08-02 01:59:00,
2013-08-01 19:04:00,73.0,31.0,-100.00,West,279,33.0,41.0,21,0.00,,,0.00,738.000000,,2013-08-02 02:04:00,
2013-08-01 19:13:00,73.0,31.0,-100.00,West,279,33.0,41.0,21,0.00,,,0.00,738.000000,,2013-08-02 02:13:00,
2013-08-01 19:22:00,73.0,31.0,-100.00,West,279,33.0,41.0,21,0.00,,,0.00,738.000000,,2013-08-02 02:22:00,
2013-08-01 19:53:00,69.0,36.0,-100.00,West,280,27.0,43.0,30,-99.99,,,0.00,410.000000,,2013-08-02 02:53:00,
2013-08-01 20:05:00,69.0,36.0,-100.00,West,280,27.0,43.0,30,-99.99,,,0.00,410.000000,,2013-08-02 03:05:00,
2013-08-01 20:12:00,69.0,36.0,-100.00,West,280,27.0,43.0,30,-99.99,,,0.00,410.000000,,2013-08-02 03:12:00,
2013-08-01 20:22:00,69.0,36.0,-100.00,West,280,27.0,43.0,30,-99.99,,,0.00,410.000000,,2013-08-02 03:22:00,
2013-08-01 20:59:00,65.0,38.0,-100.00,WNW,290,30.0,47.0,37,-99.99,,,0.00,32.000000,,2013-08-02 03:59:00,
2013-08-01 21:02:00,65.0,38.0,-100.00,WNW,290,30.0,47.0,37,-99.99,,,0.00,32.000000,,2013-08-02 04:02:00,
2013-08-01 21:12:00,65.0,38.0,-100.00,WNW,290,30.0,47.0,37,-99.99,,,0.00,32.000000,,2013-08-02 04:12:00,
2013-08-01 21:22:00,65.0,38.0,-100.00,WNW,290,30.0,47.0,37,-99.99,,,0.00,32.000000,,2013-08-02 04:22:00,
2013-08-01 21:53:00,61.0,36.0,-100.00,WNW,298,24.0,44.0,40,-99.99,,,0.00,9.000000,,2013-08-02 04:53:00,
2013-08-01 22:02:00,61.0,36.0,-100.00,WNW,298,24.0,44.0,40,-99.99,,,0.00,9.000000,,2013-08-02 05:02:00,
2013-08-01 22:12:00,61.0,36.0,-100.00,WNW,298,24.0,44.0,40,-99.99,,,0.00,9.000000,,2013-08-02 05:12:00,
2013-08-01 22:22:00,61.0,36.0,-100.00,WNW,298,24.0,44.0,40,-99.99,,,0.00,9.000000,,2013-08-02 05:22:00,
2013-08-01 22:53:00,60.0,37.0,-100.00,NW,319,33.0,39.0,42,0.00,,,0.00,0.000000,,2013-08-02 05:53:00,
2013-08-01 23:02:00,60.0,37.0,-100.00,NW,319,33.0,39.0,42,0.00,,,0.00,0.000000,,2013-08-02 06:02:00,
2013-08-01 23:12:00,60.0,37.0,-100.00,NW,319,33.0,39.0,42,0.00,,,0.00,0.000000,,2013-08-02 06:12:00,
2013-08-01 23:22:00,60.0,37.0,-100.00,NW,319,33.0,39.0,42,0.00,,,0.00,0.000000,,2013-08-02 06:22:00,
2013-08-01 23:52:00,59.0,37.0,-100.00,NW,323,32.0,41.0,43,0.00,,,0.00,0.000000,,2013-08-02 06:52:00,